Location: Geçitköy
(36.7327°N, 29.8010°E)
Time: 19:04:26
(UTC+00:00)

Cosmos 968 Rocket - Pass Details

Date: 12 January 2026
Orbit: 737 x 765 km, 74.0° (Epoch: 10 February)

Event Time Altitude Azimuth Distance (km) Brightness Sun altitude
Rises 17:05:19 0° 337° (NNW) 3,201 6.9 -23.6°
Reaches altitude 10° 17:07:43 10° 333° (NNW) 2,269 6.1 -24.1°
Maximum altitude 17:12:44 57° 256° (WSW) 877 4.0 -25.1°
Drops below altitude 10° 17:17:41 10° 179° (S) 2,239 6.0 -26.1°
Sets 17:20:03 0° 175° (S) 3,155 6.7 -26.5°
